When you browse on this site, cookies collect data to enhance your experience and personalize the content and advertising you see.
Visit our Privacy Policy to learn more. By continuing to use the site, you agree to this use of cookies and data.

Stündliche Wetter Kreta

Heute, 14 Juli, Dienstag

Zeit Temperatur Niederschläge Wind Luftdruck Luftfeuchtigkeit
00:00 +20°C° 0 mm 6 m/S 704 mmHg 70%
01:00 +20°C° 0 mm 6 m/S 703 mmHg 72%
02:00 +20°C° 0 mm 5 m/S 703 mmHg 76%
03:00 +20°C° 0 mm 5 m/S 703 mmHg 79%
04:00 +19°C° 0 mm 6 m/S 703 mmHg 81%
05:00 +19°C° 0 mm 6 m/S 703 mmHg 83%
06:00 +20°C° 0 mm 6 m/S 704 mmHg 77%
07:00 +21°C° 0 mm 6 m/S 704 mmHg 72%
08:00 +22°C° 0 mm 6 m/S 704 mmHg 66%
09:00 +23°C° 0 mm 7 m/S 705 mmHg 61%
10:00 +24°C° 0 mm 7 m/S 705 mmHg 56%
11:00 +26°C° 0 mm 7 m/S 706 mmHg 51%
12:00 +26°C° 0 mm 7 m/S 706 mmHg 50%
13:00 +27°C° 0 mm 7 m/S 706 mmHg 49%
14:00 +27°C° 0 mm 7 m/S 706 mmHg 48%
15:00 +26°C° 0 mm 7 m/S 706 mmHg 49%
16:00 +24°C° 0 mm 7 m/S 706 mmHg 51%
17:00 +24°C° 0 mm 6 m/S 705 mmHg 53%
18:00 +22°C° 0 mm 6 m/S 705 mmHg 58%
19:00 +21°C° 0 mm 5 m/S 705 mmHg 62%
20:00 +20°C° 0 mm 5 m/S 705 mmHg 67%
21:00 +19°C° 0 mm 5 m/S 706 mmHg 66%
22:00 +19°C° 0 mm 4 m/S 706 mmHg 65%
23:00 +19°C° 0 mm 4 m/S 706 mmHg 64%

Morgen, 15 Juli, Mittwoch

Zeit Temperatur Niederschläge Wind Luftdruck Luftfeuchtigkeit
00:00 +19°C° 0 mm 4 m/S 706 mmHg 63%
01:00 +18°C° 0 mm 4 m/S 706 mmHg 61%
02:00 +18°C° 0 mm 4 m/S 706 mmHg 59%
03:00 +18°C° 0 mm 4 m/S 706 mmHg 61%
04:00 +18°C° 0 mm 4 m/S 706 mmHg 63%
05:00 +18°C° 0 mm 4 m/S 706 mmHg 66%
06:00 +19°C° 0 mm 5 m/S 706 mmHg 59%
07:00 +21°C° 0 mm 5 m/S 707 mmHg 53%
08:00 +22°C° 0 mm 5 m/S 707 mmHg 47%
09:00 +23°C° 0 mm 5 m/S 708 mmHg 44%
10:00 +25°C° 0 mm 5 m/S 708 mmHg 41%
11:00 +26°C° 0 mm 5 m/S 708 mmHg 38%
12:00 +27°C° 0 mm 5 m/S 709 mmHg 36%
13:00 +27°C° 0 mm 5 m/S 709 mmHg 35%
14:00 +27°C° 0 mm 5 m/S 709 mmHg 34%
15:00 +27°C° 0 mm 5 m/S 708 mmHg 35%
16:00 +26°C° 0 mm 5 m/S 708 mmHg 36%
17:00 +26°C° 0 mm 5 m/S 708 mmHg 37%
18:00 +23°C° 0 mm 4 m/S 708 mmHg 41%
19:00 +22°C° 0 mm 3 m/S 708 mmHg 44%
20:00 +21°C° 0 mm 3 m/S 708 mmHg 48%
21:00 +20°C° 0 mm 3 m/S 708 mmHg 49%
22:00 +20°C° 0 mm 3 m/S 708 mmHg 49%
23:00 +20°C° 0 mm 3 m/S 708 mmHg 49%

übermorgen, 16 Juli, Donnerstag

Zeit Temperatur Niederschläge Wind Luftdruck Luftfeuchtigkeit
00:00 +20°C° 0 mm 3 m/S 708 mmHg 51%
01:00 +19°C° 0 mm 3 m/S 707 mmHg 53%
02:00 +19°C° 0 mm 3 m/S 707 mmHg 54%
03:00 +19°C° 0 mm 3 m/S 706 mmHg 56%
04:00 +19°C° 0 mm 3 m/S 706 mmHg 58%
05:00 +19°C° 0 mm 3 m/S 706 mmHg 59%
06:00 +21°C° 0 mm 4 m/S 706 mmHg 55%
07:00 +22°C° 0 mm 4 m/S 706 mmHg 50%
08:00 +25°C° 0 mm 4 m/S 707 mmHg 46%
09:00 +26°C° 0 mm 4 m/S 707 mmHg 43%
10:00 +27°C° 0 mm 4 m/S 707 mmHg 40%
11:00 +28°C° 0 mm 5 m/S 707 mmHg 37%
12:00 +29°C° 0 mm 5 m/S 707 mmHg 36%
13:00 +29°C° 0 mm 5 m/S 707 mmHg 35%
14:00 +29°C° 0 mm 5 m/S 707 mmHg 35%
15:00 +29°C° 0 mm 5 m/S 707 mmHg 36%
16:00 +28°C° 0 mm 5 m/S 706 mmHg 37%
17:00 +28°C° 0 mm 5 m/S 706 mmHg 38%
18:00 +26°C° 0 mm 4 m/S 706 mmHg 44%
19:00 +23°C° 0 mm 4 m/S 706 mmHg 49%
20:00 +22°C° 0 mm 3 m/S 705 mmHg 55%
21:00 +22°C° 0 mm 3 m/S 705 mmHg 55%
22:00 +21°C° 0 mm 3 m/S 705 mmHg 54%
23:00 +21°C° 0 mm 3 m/S 705 mmHg 54%

17 Juli, Freitag

Zeit Temperatur Niederschläge Wind Luftdruck Luftfeuchtigkeit
00:00 +21°C° 0 mm 3 m/S 705 mmHg 59%
01:00 +21°C° 0 mm 3 m/S 704 mmHg 64%
02:00 +20°C° 0 mm 3 m/S 704 mmHg 69%
03:00 +20°C° 0 mm 3 m/S 704 mmHg 69%
04:00 +20°C° 0 mm 3 m/S 703 mmHg 68%
05:00 +20°C° 0 mm 3 m/S 703 mmHg 68%
06:00 +21°C° 0 mm 3 m/S 703 mmHg 62%
07:00 +23°C° 0 mm 4 m/S 704 mmHg 56%
08:00 +26°C° 0 mm 4 m/S 704 mmHg 51%
09:00 +27°C° 0 mm 4 m/S 704 mmHg 45%
10:00 +28°C° 0 mm 5 m/S 705 mmHg 40%
11:00 +29°C° 0 mm 5 m/S 705 mmHg 34%
12:00 +29°C° 0 mm 5 m/S 705 mmHg 34%
13:00 +29°C° 0 mm 5 m/S 705 mmHg 35%
14:00 +29°C° 0 mm 5 m/S 705 mmHg 35%
15:00 +28°C° 0 mm 5 m/S 704 mmHg 36%
16:00 +28°C° 0 mm 5 m/S 704 mmHg 38%
17:00 +27°C° 0 mm 5 m/S 704 mmHg 39%
18:00 +26°C° 0 mm 5 m/S 704 mmHg 44%
19:00 +23°C° 0 mm 4 m/S 704 mmHg 49%
20:00 +22°C° 0 mm 3 m/S 703 mmHg 53%
21:00 +21°C° 0 mm 3 m/S 704 mmHg 52%
22:00 +21°C° 0 mm 3 m/S 704 mmHg 50%
23:00 +21°C° 0 mm 3 m/S 704 mmHg 48%

18 Juli, Samstag

Zeit Temperatur Niederschläge Wind Luftdruck Luftfeuchtigkeit
00:00 +21°C° 0 mm 3 m/S 704 mmHg 48%
01:00 +21°C° 0 mm 3 m/S 704 mmHg 48%
02:00 +20°C° 0 mm 3 m/S 703 mmHg 48%
03:00 +20°C° 0 mm 3 m/S 703 mmHg 50%
04:00 +20°C° 0 mm 3 m/S 703 mmHg 52%
05:00 +20°C° 0 mm 3 m/S 703 mmHg 55%
06:00 +21°C° 0 mm 3 m/S 703 mmHg 49%
07:00 +24°C° 0 mm 3 m/S 704 mmHg 43%
08:00 +26°C° 0 mm 4 m/S 704 mmHg 37%
09:00 +27°C° 0 mm 4 m/S 704 mmHg 35%
10:00 +28°C° 0 mm 4 m/S 705 mmHg 33%
11:00 +29°C° 0 mm 4 m/S 705 mmHg 31%
12:00 +29°C° 0 mm 4 m/S 705 mmHg 31%
13:00 +29°C° 0 mm 4 m/S 705 mmHg 31%
14:00 +30°C° 0 mm 4 m/S 705 mmHg 32%
15:00 +29°C° 0 mm 4 m/S 705 mmHg 34%
16:00 +28°C° 0 mm 3 m/S 705 mmHg 36%
17:00 +28°C° 0 mm 3 m/S 705 mmHg 39%
18:00 +26°C° 0 mm 3 m/S 705 mmHg 43%
19:00 +25°C° 0 mm 2 m/S 704 mmHg 47%
20:00 +23°C° 0 mm 2 m/S 704 mmHg 51%
21:00 +23°C° 0 mm 2 m/S 705 mmHg 50%
22:00 +21°C° 0 mm 2 m/S 705 mmHg 49%
23:00 +21°C° 0 mm 2 m/S 705 mmHg 48%

19 Juli, Sonntag

Zeit Temperatur Niederschläge Wind Luftdruck Luftfeuchtigkeit
00:00 +21°C° 0 mm 2 m/S 705 mmHg 49%
01:00 +21°C° 0 mm 2 m/S 704 mmHg 50%
02:00 +21°C° 0 mm 1 m/S 704 mmHg 50%
03:00 +21°C° 0 mm 1 m/S 704 mmHg 52%
04:00 +21°C° 0 mm 1 m/S 704 mmHg 54%
05:00 +21°C° 0 mm 1 m/S 704 mmHg 55%
06:00 +23°C° 0 mm 1 m/S 705 mmHg 51%
07:00 +24°C° 0 mm 2 m/S 705 mmHg 46%
08:00 +26°C° 0 mm 2 m/S 705 mmHg 41%
09:00 +27°C° 0 mm 2 m/S 706 mmHg 39%
10:00 +29°C° 0 mm 2 m/S 706 mmHg 37%
11:00 +30°C° 0 mm 3 m/S 706 mmHg 34%
12:00 +30°C° 0 mm 3 m/S 706 mmHg 34%
13:00 +30°C° 0 mm 3 m/S 706 mmHg 33%
14:00 +30°C° 0 mm 3 m/S 706 mmHg 33%
15:00 +30°C° 0 mm 3 m/S 706 mmHg 35%
16:00 +29°C° 0 mm 3 m/S 706 mmHg 37%
17:00 +28°C° 0 mm 3 m/S 706 mmHg 39%
18:00 +27°C° 0 mm 2 m/S 705 mmHg 45%
19:00 +25°C° 0 mm 2 m/S 705 mmHg 50%
20:00 +24°C° 0 mm 1 m/S 705 mmHg 55%
21:00 +23°C° 0 mm 1 m/S 705 mmHg 55%
22:00 +23°C° 0 mm 1 m/S 705 mmHg 54%
23:00 +23°C° 0 mm 1 m/S 705 mmHg 54%
Mehr zeigen